Regional Weather Roundup
Issued by NWS

Home | Current Version | Previous Version | Text Only | Print | Product List | Glossary On
Versions: 1 2 3 4 5 6 7 8 9 10 11 12 13 14 15 16 17 18 19 20 21 22 23 24 25 26 27 28 29 30 31 32 33 34 35 36 37 38 39 40 41 42 43 44 45 46 47 48 49 50
926
ASUS45 KREV 240510
RWRNV
NEVADA REGIONAL WEATHER ROUNDUP
NATIONAL WEATHER SERVICE RENO NV
900 PM PST TUE JAN 23 2018

NOTE: "FAIR" INDICATES FEW OR NO CLOUDS BELOW 12,000 FEET WITH NO
SIGNIFICANT WEATHER AND/OR OBSTRUCTIONS TO VISIBILITY.

NVZ001-003-004-240600-
WESTERN NEVADA

CITY           SKY/WX    TMP DP  RH WIND       PRES   REMARKS
RENO           MOCLDY    41  25  53 CALM      30.16R
CARSON CITY    FAIR      32  23  69 CALM      30.20R
MINDEN         FAIR      28  19  69 SE3       30.19S
SLIDE MTN        N/A     28  10  47 SW41        N/A
PYRAMID LAKE     N/A     41 N/A N/A W6          N/A
FALLON         CLOUDY    35  12  38 CALM      30.17S
LOVELOCK       CLOUDY    31  22  69 W5        30.17S
HAWTHORNE      CLEAR     43  12  28 SE7       30.18S
$$

NVZ002-CAZ072-073-240600-
NORTHERN AND CENTRAL SIERRA

CITY           SKY/WX    TMP DP  RH WIND       PRES   REMARKS
S. LAKE TAHOE  CLEAR     34  18  52 S6        30.20S
TRUCKEE        PTCLDY    28  21  74 CALM      30.20S
SQUAW VLY 8000   N/A     32  12  43 S9          N/A
SUSANVILLE     CLEAR    N/A N/A N/A CALM      30.15F
BLUE CANYON    CLEAR     40  30  67 SE8       30.20F
MAMMOTH LAKES  FAIR      21   9  59 N3        30.30R
BRIDGEPORT     FAIR      31   8  38 CALM      30.20S
$$

NVZ030-031-036-240600-
NORTHERN NEVADA

CITY           SKY/WX    TMP DP  RH WIND       PRES   REMARKS
ELKO           MOCLDY    31  26  82 E5        30.22S
WINNEMUCCA     MOCLDY    35  25  66 E6        30.16S
WENDOVER       MOCLDY    25  19  78 CALM      30.30F
$$

NVZ035-037-240600-
CENTRAL NEVADA

CITY           SKY/WX    TMP DP  RH WIND       PRES   REMARKS
ELY            MOCLDY    18  12  77 SE8       30.29R
EUREKA           N/A     23  18  81 SW9       30.24S
$$

NVZ013-014-240600-
SOUTH CENTRAL NEVADA

CITY           SKY/WX    TMP DP  RH WIND       PRES   REMARKS
TONOPAH        MOCLDY    31  21  66 N9        30.28R
$$

NVZ017-020-022-240600-
SOUTHERN NEVADA

CITY           SKY/WX    TMP DP  RH WIND       PRES   REMARKS
LAS VEGAS      PTCLDY    49  28  44 SW3       30.27R
N. LAS VEGAS   CLEAR     46  28  49 N5        30.27R
NELLIS AFB     CLEAR     45  28  51 N5        30.27R
HENDERSON      CLEAR     42  26  53 S9        30.29R
MERCURY        CLEAR     40  23  50 NW6       30.26R
$$




USA.gov is the U.S. government's official web portal to all federal, state and local government web resources and services.